Torna al catalogo

FENGYUN 1C DEB

AttivoPO
NORAD 30048·DEBRIS·🇨🇳 China

Lanciato May 10, 1999 da Taiyuan Satellite Launch Center

Loading…

Prossimi Passaggi (prossime 24 ore)

TLE

AggiornatoSource: Space-Track

Epoca: Sep 14, 2026, 13:08 UTC

1 30048U 99025NZ  26257.54770905  .00000152  00000-0  16168-3 0  9992
2 30048  98.6350 105.0471 0185973 219.7426 168.2364 13.80037733989304

Traccia FENGYUN 1C DEB in tempo reale con AllMySat

Download on the App Store